Location: Bun Machan
(52.1403°N, 7.3744°W)
Time: 02:15:30
(UTC+00:00)

Lacrosse 5 - Pass Details

Date: 14 July 2020
Orbit: 717 x 720 km, 57.0° (Epoch: 02 August)

Event Time Altitude Azimuth Distance (km) Brightness Sun altitude
Rises 03:30:25 0° 272° (W) 3,125 4.8 -7.0°
Reaches altitude 10° 03:32:53 10° 278° (W) 2,205 4.1 -6.7°
Maximum altitude 03:37:49 50° 354° (N) 920 2.8 -6.2°
Drops below altitude 10° 03:42:46 10° 70° (ENE) 2,209 5.6 -5.7°
Sets 03:45:13 0° 76° (ENE) 3,130 6.3 -5.5°
